Location: ????????
(55.8351°N, 38.7040°E)
Time: 08:47:46
(UTC+00:00)

NOAA 11 - Pass Details

Date: 14 April 2024
Orbit: 833 x 848 km, 98.5° (Epoch: 19 May)

Event Time Altitude Azimuth Distance (km) Brightness Sun altitude
Rises 01:17:07 0° 16° (NNE) 3,398 8.2 -9.0°
Reaches altitude 10° 01:19:29 10° 17° (NNE) 2,461 7.4 -8.8°
Maximum altitude 01:24:57 88° 108° (ESE) 847 4.3 -8.1°
Drops below altitude 10° 01:30:25 10° 197° (SSW) 2,453 6.2 -7.4°
Sets 01:32:46 0° 198° (SSW) 3,385 6.9 -7.1°
